Retour au catalogue

SCOUT G-1 DEB

ActifPO
NORAD 18426·DEBRIS·🇺🇸 United States

Lancé Nov 14, 1986 depuis Vandenberg Space Force Base

Loading…

Prochains Passages (prochaines 24 heures)

TLE

FraisSource: Space-Track

Époque: Sep 13, 2026, 22:39 UTC

1 18426U 86088C   26256.94396178  .00000128  00000-0  12194-3 0  9990
2 18426  89.1209 244.5840 0066432 246.5794 142.0170 13.73914548993132

Suivez SCOUT G-1 DEB en temps réel avec AllMySat

Download on the App Store